Location: Bothwell
(42.3833°S, 147.0000°E)
Time: 20:28:14
(UTC+11:00)

BEESAT - Pass Details

Date: 01 October 2022
Orbit: 699 x 706 km, 98.5° (Epoch: 25 November)

Event Time Altitude Azimuth Distance (km) Brightness Sun altitude
Exits shadow 19:50:38 18° 20° (NNE) 1,699 ? -17.4°
Maximum altitude 19:54:13 80° 106° (ESE) 730 ? -18.0°
Drops below altitude 10° 19:59:04 10° 191° (SSW) 2,212 ? -18.8°
Sets 20:01:21 0° 192° (SSW) 3,140 ? -19.2°
